Regional Weather Roundup
Issued by NWS Memphis, TN

Home | Current Version | Previous Version | Text Only | Print | Product List | Glossary On
Versions: 1 2 3 4 5 6 7 8 9 10 11 12 13 14 15 16 17 18 19 20 21 22 23 24 25 26 27 28 29 30 31 32 33 34 35 36 37 38 39 40 41 42 43 44 45 46 47 48 49 50
000
ASUS44 KMEG 051310
RWRMEG
MEMPHIS CWA HOURLY WEATHER ROUNDUP
NATIONAL WEATHER SERVICE MEMPHIS TN
800 AM CDT SAT SEP 05 2015

...WEST TENNESSEE...

CITY           SKY/WX    TMP DP  RH WIND       PRES   REMARKS
MEMPHIS INTL   MOSUNNY   80  70  71 E3        30.07R
NWS MEMPHIS      N/A     74 N/A N/A MISG        N/A
JACKSON        SUNNY     74  71  91 CALM      30.08R
LEXINGTON      SUNNY     72  70  94 CALM      30.09R
DYERSBURG      SUNNY     73  70  88 CALM      30.09R
UNION CITY     SUNNY    N/A N/A N/A CALM      30.08R
PARIS          SUNNY     73  68  83 E3        30.10R


...EASTERN ARKANSAS...

CITY           SKY/WX    TMP DP  RH WIND       PRES   REMARKS
JONESBORO      SUNNY     75  72  90 E5        30.07R
WEST MEMPHIS   SUNNY     77  76  96 CALM      30.05R
BATESVILLE     SUNNY     72  70  94 CALM      30.08R
NEWPORT        SUNNY     74  73  96 CALM      30.08R FOG
WALNUT RIDGE   SUNNY     73  70  88 N3        30.07R
BLYTHEVILLE    SUNNY     76  74  93 E3        30.08R
SEARCY         SUNNY     75  72  90 N3        30.08R
STUTTGART      SUNNY     77  70  78 E7        30.06R
PINE BLUFF     SUNNY     75  71  87 CALM      30.05R
MONTICELLO     SUNNY     77  72  84 CALM      30.04R


...NORTH MISSISSIPPI...

CITY           SKY/WX    TMP DP  RH WIND       PRES   REMARKS
TUPELO         SUNNY     75  71  87 NE5       30.07R
OXFORD         SUNNY     72  68  88 CALM      30.09R
OLIVE BRANCH   SUNNY     75  73  94 CALM      30.08R
TUNICA           N/A    N/A N/A N/A MISG        N/A
CLARKSDALE     SUNNY     75  75 100 CALM      30.07R
CORINTH        SUNNY     70  70 100 CALM      30.08R FOG
GREENWOOD      SUNNY     76  70  82 CALM      30.05R
COLUMBUS       SUNNY     74  72  92 CALM      30.05R
STARKVILLE     FAIR      73  72  94 CALM      30.06R
GOLDEN TRIANGL SUNNY     75  70  83 N5        30.05R


...SOUTHEAST MISSOURI...

CITY           SKY/WX    TMP DP  RH WIND       PRES   REMARKS
WEST PLAINS    SUNNY     72  68  87 CALM      30.13R
POPLAR BLUFF   SUNNY     74  70  87 CALM      30.08R FOG
CAPE GIRARDEAU SUNNY     71  70  96 CALM      30.09R FOG


...NORTHWEST ALABAMA...

CITY           SKY/WX    TMP DP  RH WIND       PRES   REMARKS
MUSCLE SHOALS  SUNNY     73  70  90 CALM      30.10R FOG


...MIDDLE TENNESSEE...

CITY           SKY/WX    TMP DP  RH WIND       PRES   REMARKS
NASHVILLE      MOSUNNY   77  68  73 NE5       30.11R
CLARKSVILLE    SUNNY     74  68  81 CALM      30.10R HAZE
COLUMBIA       MOSUNNY  N/A N/A N/A CALM      30.09S


...WESTERN KENTUCKY...

CITY           SKY/WX    TMP DP  RH WIND       PRES   REMARKS
PADUCAH        SUNNY     76  71  85 CALM      30.09R HAZE
FORT CAMPBELL  SUNNY     72  68  87 CALM      30.10R


...CENTRAL ARKANSAS...

CITY           SKY/WX    TMP DP  RH WIND       PRES   REMARKS
LITTLE ROCK    SUNNY     77  71  82 CALM      30.05R


SKY/WX REPORTED AS FAIR MEANS FEW OR NO CLOUDS BELOW
12 THOUSAND FEET.



USA.gov is the U.S. government's official web portal to all federal, state and local government web resources and services.